Weather History for KSAT - May, 2014

Change the Weather History Date:

Thursday, May 15, 2014

  Actual Average Record
Temperature  
Mean Temperature 65 °F 77 °F  
Max Temperature 83 °F 87 °F 96 °F (2003)
Min Temperature 47 °F 67 °F 47 °F (2014)
Degree Days  
Heating Degree Days 0 0  
Month to date heating degree days 4 0  
Since 1 July heating degree days 1566 1494  
Cooling Degree Days 0 12  
Month to date cooling degree days 135 152  
Year to date cooling degree days 497 411  
Growing Degree Days 14 (Base 50)    
Moisture  
Dew Point 38 °F    
Average Humidity 47    
Maximum Humidity 77    
Minimum Humidity 16    
Precipitation  
Precipitation 0.00 in 0.13 in 2.56 in (2012)
Month to date precipitation 2.84 1.77  
Year to date precipitation 5.23 9.73  
Snow  
Snow 0.00 in - - ()
Month to date snowfall 0.0  
Since 1 July snowfall 0.4  
Snow Depth 0.00 in    
Sea Level Pressure  
Sea Level Pressure 30.21 in    
Wind  
Wind Speed 9 mph (WSW)    
Max Wind Speed 16 mph    
Max Gust Speed 22 mph    
Visibility 10 miles    
Events      
T = Trace of Precipitation, MM = Missing Value Source: NWS Daily Summary

Daily Weather History Graph

Daily Weather History Graph

Search for Another Location

Airport or City:

Trip Planner

Search our weather history database for the weather conditions in past years. The results will help you decide how hot, cold, wet, or windy it might be!

Date:

Astronomy

May. 15, 2014 Rise Set
Actual Time 6:41 AM CDT 8:19 PM CDT
Civil Twilight 6:15 AM CDT 8:45 PM CDT
Nautical Twilight 5:44 AM CDT 9:16 PM CDT
Astronomical Twilight 5:11 AM CDT 9:49 PM CDT
Moon 9:29 PM CDT (5/15) 7:28 AM CDT (5/15)
Length of Visible Light 14h 30m
Length of Day
13h 38m
Full, 99% of the Moon is Illuminated
May 15
Full
May 21
Last Quarter
May 28
New
Jun 5
First Quarter
Jun 12
Full

Hourly Weather History & Observations

Time (CDT) Temp. Dew Point Humidity Pressure Visibility Wind Dir Wind Speed Gust Speed Precip Events Conditions
12:51 AM 54.0 °F 43.0 °F 66% 30.24 in 10.0 mi WNW 6.9 mph - N/A   Clear
1:51 AM 53.1 °F 42.1 °F 66% 30.24 in 10.0 mi WNW 6.9 mph - N/A   Clear
2:51 AM 51.1 °F 42.1 °F 71% 30.24 in 10.0 mi NW 4.6 mph - N/A   Clear
3:51 AM 50.0 °F 42.1 °F 74% 30.24 in 10.0 mi NW 4.6 mph - N/A   Clear
4:51 AM 50.0 °F 42.1 °F 74% 30.24 in 10.0 mi NW 3.5 mph - N/A   Clear
5:51 AM 48.9 °F 41.0 °F 74% 30.26 in 10.0 mi NW 6.9 mph - N/A   Clear
6:51 AM 48.0 °F 41.0 °F 77% 30.27 in 10.0 mi WNW 5.8 mph - N/A   Clear
7:51 AM 54.0 °F 43.0 °F 66% 30.28 in 10.0 mi NW 4.6 mph - N/A   Clear
8:50 AM 64.9 °F 42.1 °F 43% 30.28 in 10.0 mi WSW 6.9 mph - N/A   Clear
9:51 AM 68.0 °F 41.0 °F 37% 30.29 in 10.0 mi SSW 12.7 mph - N/A   Clear
10:51 AM 71.1 °F 39.0 °F 31% 30.29 in 10.0 mi SSW 10.4 mph - N/A   Clear
11:51 AM 73.9 °F 39.9 °F 29% 30.27 in 10.0 mi SSW 10.4 mph - N/A   Clear
12:51 PM 77.0 °F 37.4 °F 24% 30.28 in 10.0 mi SSW 11.5 mph - N/A   Clear
2:51 PM 80.1 °F 36.0 °F 20% 30.19 in 10.0 mi SSW 13.8 mph 19.6 mph N/A   Clear
3:51 PM 82.0 °F 35.1 °F 18% 30.16 in 10.0 mi SSW 11.5 mph - N/A   Partly Cloudy
4:51 PM 81.0 °F 33.1 °F 18% 30.14 in 10.0 mi WSW 8.1 mph - N/A   Partly Cloudy
5:51 PM 82.0 °F 32.0 °F 16% 30.12 in 10.0 mi SW 12.7 mph 19.6 mph N/A   Partly Cloudy
6:51 PM 80.6 °F 30.2 °F 16% 30.15 in 10.0 mi SW 13.8 mph - N/A   Clear
7:51 PM 79.0 °F 30.0 °F 17% 30.11 in 10.0 mi SSW 10.4 mph - N/A   Clear
8:51 PM 73.9 °F 34.0 °F 23% 30.12 in 10.0 mi South 8.1 mph - N/A   Clear
9:51 PM 72.0 °F 36.0 °F 27% 30.14 in 10.0 mi South 6.9 mph - N/A   Clear
10:51 PM 71.1 °F 37.0 °F 29% 30.14 in 10.0 mi South 8.1 mph - N/A   Clear
11:51 PM 70.0 °F 41.0 °F 35% 30.14 in 10.0 mi South 12.7 mph - N/A   Clear